Other Public Products
Issued by NWS Grand Forks, ND

Home | Current Version | Previous Version | Graphics & Text | Print | Product List | Glossary On
Versions: 1 2 3 4 5 6 7 8 9 10 11 12 13 14 15 16 17 18 19 20 21 22 23 24 25 26 27 28 29 30 31 32 33 34 35 36 37 38 39 40 41 42 43 44 45 46 47 48 49 50
978
FPUS83 KFGF 292210
OPUFGF
PRAIRIE TO PINES WEATHER ROUNDUP
NATIONAL WEATHER SERVICE EASTERN NORTH DAKOTA/GRAND FORKS ND
500 PM CDT FRI JUL 29 2016

 **SATELLITE DATA USED TO AUGMENT SKY COVER AT AUTOMATED STATIONS**
 *****  WEATHER ACROSS EASTERN NORTH DAKOTA  *****

CITY           SKY/WX    TMP DP  RH WIND       PRES   REMARKS
GRAND FORKS    PTSUNNY   79  55  43 SW6       30.01F
GRAND FORKS AF MOSUNNY   78  55  44 W6        30.02F
GRAND CITY NWS NOT AVBL
BUXTON           N/A     82  57  42 S3          N/A
DEVILS LAKE    SUNNY     76  59  55 SE7       30.03F
FARGO          CLOUDY    81  58  45 N7        30.02F
WAHPETON ARPT  CLOUDY    77  59  53 SW7       30.03F
$$

 *****  WEATHER ACROSS CENTRAL AND WESTERN NORTH DAKOTA  *****

CITY           SKY/WX    TMP DP  RH WIND       PRES   REMARKS
JAMESTOWN      MOSUNNY   72  62  71 S7        30.03F
BISMARCK       MOSUNNY   81  59  47 SE7       30.00F
MINOT          CLOUDY    82  56  40 SE5       29.99F
MINOT AFB      PTSUNNY   80  59  48 VRB7      29.98F
GARRISON         N/A     78  58  49 VRB5      30.01F
WILLISTON      CLOUDY    80  47  31 SW3       30.00F
DICKINSON      MOSUNNY   78  54  43 VRB5      30.00F
HETTINGER      PTSUNNY   85  52  32 S10       30.02F
$$

 *****  OTHER OBSERVATIONS NORTHEAST NORTH DAKOTA  *****

CITY           SKY/WX    TMP DP  RH WIND       PRES   REMARKS
WALHALLA       NOT AVBL
LANGDON        FAIR      77  54  44 SW6       30.04F
CAVALIER       FAIR      79  55  44 S5        30.01F
GRAFTON        FAIR      79  55  44 S5        30.03F
CANDO          NOT AVBL
FORT TOTTEN      N/A     77  61  56 SE6       29.95S
ROLLA            N/A     75  55  50 SW7       30.04F
RUGBY          NOT AVBL
 ***** THE ABOVE OBSERVATIONS ARE NON NWS ARE NOT QUALITY
        CONTROLLED AND MAY MIS-REPORT RAIN FOR SNOW...
$$

 *****  OTHER OBSERVATIONS SOUTHEAST NORTH DAKOTA *****

CITY           SKY/WX    TMP DP  RH WIND       PRES   REMARKS
COOPERSTOWN    NOT AVBL
VALLEY CITY    MOCLDY    77  63  61 SW5       30.05F
OAKES            N/A    N/A N/A N/A MISG        N/A
GWINNER        FAIR      81  63  54 CALM      30.04S
SHEYENNE NWR     N/A     82  60  46 SE2       29.95S
BUFFALO          N/A     79  54  41 CALM        N/A
WYNDMERE       NOT AVBL
 ***** THE ABOVE OBSERVATIONS ARE NON NWS ARE NOT QUALITY
       CONTROLLED AND MAY MIS-REPORT RAIN FOR SNOW...
$$

  *****  WEATHER ACROSS NORTHERN MINNESOTA  *****

CITY           SKY/WX    TMP DP  RH WIND       PRES   REMARKS
FLAG ISLAND    SUNNY     75  52  43 SE7       30.02F
WARROAD        MOSUNNY   77  63  61 E8        30.03F
ROSEAU         MOSUNNY   79  61  53 CALM      30.02F
HALLOCK        SUNNY     79  54  41 S5        30.01F
THF RVR FALLS  MOSUNNY   77  52  41 SW3       30.04F
HALSTAD          N/A     78  59  51 W8          N/A
FOSSTON        SUNNY     79  54  41 CALM      30.04F
BAUDETTE       SUNNY     76  56  49 E5        30.02F
WASKISH        SUNNY     79  59  50 W6        30.04S
CROOKSTON      CLOUDY    79  55  44 W5        30.03S
$$
  *****  WEATHER ACROSS CENTRAL AND WEST MINNESOTA  *****

CITY           SKY/WX    TMP DP  RH WIND       PRES   REMARKS
BEMIDJI        MOSUNNY   77  57  49 E7        30.03F
PARK RAPIDS    PTSUNNY   79  57  46 S7        30.04F
WADENA         NOT AVBL
DETROIT LAKES  MOSUNNY   75  57  53 N7        30.06S
MOORHEAD       PTSUNNY   79  61  53 CALM      30.03S
FERGUS FALLS   CLOUDY    66  66 100 SE7       30.06F
ELBOW LAKE     CLOUDY    75  62  62 SW7       30.05F
MORRIS MN      MOSUNNY   79  57  47 SW6       30.04F
STAPLES        PTSUNNY   75  54  46 CALM      30.05F
WHEATON        NOT AVBL
$$
  *****  WEATHER ELSEWHERE ACROSS MINNESOTA  *****

CITY           SKY/WX    TMP DP  RH WIND       PRES   REMARKS
DULUTH         MOSUNNY   73  52  47 VRB6      30.08F
INTRNTL FALLS  PTSUNNY   76  56  49 CALM      30.04F
ELY            PTSUNNY   77  46  33 CALM      30.07F
CLOQUET        SUNNY     73  43  33 E5        30.08S
BRAINERD       SUNNY     77  53  43 VRB5      30.06F
HIBBING        PTSUNNY   75  49  39 CALM      30.07F
ALEXANDRIA     PTSUNNY   75  54  47 SW5       30.07F
SAINT CLOUD    SUNNY     77  55  46 VRB6      30.04F
MINNEAPOLIS    MOSUNNY   78  50  37 N12G17    30.03S
$$

  *****  WEATHER ACROSS SOUTH DAKOTA  *****

CITY           SKY/WX    TMP DP  RH WIND       PRES   REMARKS
SIOUX FALLS    MOSUNNY   77  53  43 E7        30.04F
BROOKINGS      MOSUNNY   76  55  48 NE10      30.06F
WATERTOWN      PTSUNNY   78  55  44 S8        30.06F
HURON          MOSUNNY   83  53  35 E12       30.02F
SISSETON         N/A     78  59  51 CALM      30.03F
ABERDEEN       NOT AVBL
MITCHELL       SUNNY     82  53  36 VRB3      30.03F
PIERRE         SUNNY     82  56  40 SE10      29.99F
MOBRIDGE       PTSUNNY   84  57  39 SE10G17   29.99F
RAPID CITY     CLOUDY    71  58  63 S8        30.04F
$$

  *****  SOME WEATHER IN NEARBY STATES *****

CITY           SKY/WX    TMP DP  RH WIND       PRES   REMARKS
GLASGOW MT     SUNNY     80  55  42 S9        29.99F
GREAT FALLS MT SUNNY     86  47  25 CALM      30.01F
CHEYENNE WY    CLOUDY    74  51  44 SE26G35   30.12F THUNDER
SCOTTSBLUFF NE PTSUNNY   81  61  50 E14       30.04S
OMAHA NE       MOSUNNY   83  61  47 N10       30.00F
DES MOINES IA  CLOUDY    73  64  73 N7        29.98F
DAVENPORT IA   PTSUNNY   77  68  73 N8        29.93R
CHICAGO IL     CLOUDY    74  70  87 NE14      29.92S
EAU CLAIRE WI  PTSUNNY   80  59  48 VRB7      30.00F
LA CROSSE WI   CLOUDY    76  64  66 E7        29.98S
$$

  *****  SOME NATIONAL WEATHER *****

CITY           SKY/WX    TMP DP  RH WIND       PRES   REMARKS
LA GUARDIA NY  MOSUNNY   85  69  58 NE7       29.84R
RALEIGH NC     MOSUNNY   91  68  46 VRB6      29.92R HX  95
ATLANTA GA     PTSUNNY   90  69  50 W13       29.98F HX  94
NEW ORLEANS LA CLOUDY    85  74  69 SW16G22   30.00R THUNDER HX  92
OKLAHOMA CITY  MOSUNNY   87  65  47 NE5       29.98F
ALBUQUERQUE NM CLOUDY    87  47  24 S20G32    30.10F
SALT LAKE CITY MOSUNNY  101  36  10 NW9G21    29.98F HX  95
LOS ANGELES CA MOSUNNY   77  64  64 W14       29.81F
BOISE ID       SUNNY     98  40  13 NW10      29.90F HX  93
SEATTLE WA     SUNNY     87  56  34 N13G18    29.97F
$$

*** WEATHER ACROSS MANITOBA...SASKATCHEWAN AND ONTARIO ***
                ***ONTARIO***

CITY           SKY/WX    TMP DP  RH WIND       PRES   REMARKS
GERALDTON      MOSUNNY   77  52  41 NW5       30.06F
THUNDER BAY    PTSUNNY   77  54  44 S8        30.06F
SIOUX LOOKOUT  NOT AVBL
TORONTO        PTSUNNY   79  57  47 S9        29.95S
BIG TROUT LK   SUNNY     77  54  44 CALM      29.97F
PICKLE LAKE    PTSUNNY   79  46  31 SW8       30.01S
DRYDEN         SUNNY     79  46  31 VRB5      30.04F
KENORA         PTSUNNY   75  54  46 S7        30.05F
$$
                *** MANITOBA***

CITY           SKY/WX    TMP DP  RH WIND       PRES   REMARKS
BRANDON        MOSUNNY   79  54  41 SW8       30.00F
DAUPHIN        SUNNY     82  57  42 W10       29.95F
ISLAND LAKE    CLOUDY    72  64  78 N5        29.94F
PILOT MOUND      N/A     75  54  46 S5          N/A
THE PAS        PTSUNNY   75  61  60 S5        29.88F
THOMPSON       TSTM      61  59  94 N5        29.93S
WINNIPEG       MOSUNNY   77  57  50 SW5       30.01F
LYNN LAKE      CLOUDY    66  61  82 MISG      29.89F
CHURCHILL      PTSUNNY   63  46  55 E10       30.03S
GILLAM         PTSUNNY   72  54  53 E7        29.96F
$$
                ***SASKATCHEWAN***

CITY           SKY/WX    TMP DP  RH WIND       PRES   REMARKS
ESTEVAN        CLOUDY    75  54  46 S6        29.99F
KINDERSLEY     MOSUNNY   79  57  47 SW3       29.96F
LLOYDMINSTER   MOSUNNY   79  57  47 W8        29.91F
PRINCE ALBERT  MOSUNNY   75  59  57 SW5       29.89F
REGINA         PTSUNNY   77  59  53 W7        29.96F
YORKTON        SUNNY     79  57  47 S8        29.95F   C1F1C2F2C3F3C4F4C5F5C6F6C7F7C8F8C9F9CaFaCbFbCcFcCdFdCe!



USA.gov is the U.S. government's official web portal to all federal, state and local government web resources and services.